Location: Boneville
(33.4331°N, 82.4399°W)
Time: 22:12:35
(UTC+00:00)

Hubble Space Telescope - Pass Details

Date: 25 September 2024
Orbit: 504 x 508 km, 28.5° (Epoch: 06 October)

Event Time Altitude Azimuth Distance (km) Brightness Sun altitude
Exits shadow 09:59:53 - 189° (S) 1,835 3.3 -17.5°
Reaches altitude 10° 10:00:41 10° 179° (S) 1,693 3.2 -17.4°
Maximum altitude 10:02:08 12° 157° (SSE) 1,586 3.3 -17.1°
Drops below altitude 10° 10:03:35 10° 135° (SE) 1,695 3.8 -16.8°
Sets 10:07:06 0° 102° (ESE) 2,582 5.6 -16.0°
